Location: Peebles
(55.6412°N, 3.1714°W)
Time: 17:05:25
(UTC+01:00)

USA 281 - Pass Details

Date: 03 February 2022
Orbit: 1070 x 1089 km, 106.0° (Epoch: 25 March)

Event Time Altitude Azimuth Distance (km) Brightness Sun altitude
Rises 07:08:31 0° 53° (NE) 3,899 6.7 -7.8°
Reaches altitude 10° 07:12:01 10° 35° (NE) 2,945 5.7 -7.3°
Maximum altitude 07:15:55 17° 358° (N) 2,472 4.9 -6.8°
Drops below altitude 10° 07:19:49 10° 322° (NW) 2,948 5.0 -6.3°
Enters shadow 07:21:39 - 311° (NW) 3,410 5.2 -6.1°
